Location: Niedergestelen
(46.3129°N, 7.7822°E)
Time: 14:41:49
(UTC+00:00)

USA 281 - Pass Details

Date: 01 December 2020
Orbit: 1074 x 1084 km, 106.0° (Epoch: 22 January)

Event Time Altitude Azimuth Distance (km) Brightness Sun altitude
Rises 17:19:16 0° 131° (SE) 3,873 5.8 -15.9°
Reaches altitude 10° 17:21:52 10° 125° (SE) 2,919 5.1 -16.3°
Maximum altitude 17:28:03 46° 55° (NE) 1,412 3.4 -17.3°
Drops below altitude 10° 17:34:15 10° 345° (NNW) 2,927 5.5 -18.4°
Sets 17:36:52 0° 339° (NNW) 3,884 6.2 -18.8°
